TimeEST,TemperatureF,Dew PointF,Humidity,Sea Level PressureIn,VisibilityMPH,Wind Direction,Wind SpeedMPH,Gust SpeedMPH,PrecipitationIn,Events,Conditions,WindDirDegrees,DateUTC
12:15 AM,19.2,18.9,98,30.39,10.0,North,-9999.0,-,N/A,,Clear,0,2012-12-31 05:15:00
12:35 AM,18.5,18.1,98,30.40,10.0,North,-9999.0,-,N/A,,Clear,0,2012-12-31 05:35:00
12:55 AM,18.5,18.3,99,30.40,10.0,North,-9999.0,-,N/A,,Clear,0,2012-12-31 05:55:00
1:15 AM,18.5,18.1,98,30.39,10.0,North,-9999.0,-,N/A,,Clear,0,2012-12-31 06:15:00
1:35 AM,18.5,18.1,98,30.38,10.0,North,-9999.0,-,N/A,,Clear,0,2012-12-31 06:35:00
1:55 AM,18.7,18.3,98,30.39,10.0,North,-9999.0,-,N/A,,Clear,0,2012-12-31 06:55:00
2:15 AM,18.3,18.0,98,30.38,10.0,North,-9999.0,-,N/A,,Clear,0,2012-12-31 07:15:00
2:35 AM,18.3,17.8,98,30.38,10.0,North,-9999.0,-,N/A,,Clear,0,2012-12-31 07:35:00
2:55 AM,18.0,17.4,98,30.37,10.0,North,-9999.0,-,N/A,,Clear,0,2012-12-31 07:55:00
3:15 AM,17.6,17.2,98,30.37,10.0,North,-9999.0,-,N/A,,Clear,0,2012-12-31 08:15:00
3:35 AM,17.6,17.1,98,30.37,10.0,North,-9999.0,-,N/A,,Clear,0,2012-12-31 08:35:00
3:55 AM,17.6,17.2,98,30.35,10.0,North,-9999.0,-,N/A,,Clear,0,2012-12-31 08:55:00
4:15 AM,18.0,17.4,98,30.34,10.0,North,-9999.0,-,N/A,,Clear,0,2012-12-31 09:15:00
4:35 AM,17.6,17.2,98,30.33,10.0,North,-9999.0,-,N/A,,Clear,0,2012-12-31 09:35:00
4:55 AM,17.4,16.7,97,30.33,10.0,North,-9999.0,-,N/A,,Clear,0,2012-12-31 09:55:00
5:15 AM,16.9,16.3,98,30.34,10.0,North,-9999.0,-,N/A,,Clear,0,2012-12-31 10:15:00
5:35 AM,16.5,15.8,97,30.33,10.0,North,-9999.0,-,N/A,,Clear,0,2012-12-31 10:35:00
5:55 AM,16.0,15.4,98,30.33,10.0,North,-9999.0,-,N/A,,Clear,0,2012-12-31 10:55:00
6:15 AM,17.6,17.1,98,30.33,10.0,North,-9999.0,-,N/A,,Clear,0,2012-12-31 11:15:00
6:35 AM,18.5,18.0,98,30.34,10.0,North,-9999.0,-,N/A,,Clear,0,2012-12-31 11:35:00
6:55 AM,18.3,17.6,97,30.33,10.0,North,-9999.0,-,N/A,,Clear,0,2012-12-31 11:55:00
7:15 AM,18.9,18.3,98,30.33,10.0,North,-9999.0,-,N/A,,Clear,0,2012-12-31 12:15:00
7:35 AM,18.5,18.0,98,30.33,10.0,North,-9999.0,-,N/A,,Clear,0,2012-12-31 12:35:00
7:55 AM,18.7,18.1,98,30.33,10.0,North,-9999.0,-,N/A,,Clear,0,2012-12-31 12:55:00
8:15 AM,20.1,19.4,97,30.33,10.0,North,-9999.0,-,N/A,,Clear,0,2012-12-31 13:15:00
8:35 AM,21.2,20.7,98,30.34,10.0,North,-9999.0,-,N/A,,Clear,0,2012-12-31 13:35:00
8:55 AM,22.8,22.1,97,30.33,10.0,North,-9999.0,-,N/A,,Clear,0,2012-12-31 13:55:00
9:15 AM,23.9,23.0,96,30.33,10.0,North,-9999.0,-,N/A,,Clear,0,2012-12-31 14:15:00
9:35 AM,24.4,23.7,97,30.32,10.0,North,-9999.0,-,N/A,,Scattered Clouds,0,2012-12-31 14:35:00
9:55 AM,25.3,24.6,97,30.32,10.0,North,-9999.0,-,N/A,,Scattered Clouds,0,2012-12-31 14:55:00
10:15 AM,26.6,25.9,97,30.33,10.0,North,-9999.0,-,N/A,,Mostly Cloudy,0,2012-12-31 15:15:00
10:35 AM,27.7,27.0,97,30.33,10.0,North,-9999.0,-,N/A,,Overcast,0,2012-12-31 15:35:00
10:55 AM,28.6,27.7,96,30.32,10.0,North,-9999.0,-,N/A,,Overcast,0,2012-12-31 15:55:00
11:15 AM,29.7,28.9,97,30.32,10.0,North,-9999.0,-,N/A,,Overcast,0,2012-12-31 16:15:00
11:35 AM,31.6,29.8,93,30.31,10.0,North,-9999.0,-,N/A,,Overcast,0,2012-12-31 16:35:00
12:15 PM,34.5,27.3,75,30.26,10.0,North,-9999.0,-,N/A,,Mostly Cloudy,0,2012-12-31 17:15:00
12:35 PM,34.5,29.3,81,30.26,10.0,North,-9999.0,-,N/A,,Mostly Cloudy,0,2012-12-31 17:35:00
12:55 PM,35.2,28.9,78,30.24,10.0,North,-9999.0,-,N/A,,Scattered Clouds,0,2012-12-31 17:55:00
1:15 PM,35.8,28.2,74,30.24,10.0,North,-9999.0,-,N/A,,Scattered Clouds,0,2012-12-31 18:15:00
1:35 PM,36.0,27.0,70,30.22,10.0,North,-9999.0,-,N/A,,Mostly Cloudy,0,2012-12-31 18:35:00
1:55 PM,36.5,28.6,73,30.23,10.0,North,-9999.0,-,N/A,,Overcast,0,2012-12-31 18:55:00
2:15 PM,36.9,27.9,70,30.22,10.0,North,-9999.0,-,N/A,,Overcast,0,2012-12-31 19:15:00
2:35 PM,37.0,28.0,70,30.21,10.0,North,-9999.0,-,N/A,,Overcast,0,2012-12-31 19:35:00
2:55 PM,36.7,29.1,74,30.21,10.0,North,-9999.0,-,N/A,,Overcast,0,2012-12-31 19:55:00
3:15 PM,37.0,28.4,71,30.20,10.0,North,-9999.0,-,N/A,,Overcast,0,2012-12-31 20:15:00
3:35 PM,36.7,31.6,82,30.20,10.0,North,-9999.0,-,N/A,,Overcast,0,2012-12-31 20:35:00
3:55 PM,36.0,32.2,86,30.20,10.0,North,-9999.0,-,N/A,,Overcast,0,2012-12-31 20:55:00
4:15 PM,35.6,32.0,87,30.17,10.0,North,-9999.0,-,N/A,,Overcast,0,2012-12-31 21:15:00
4:35 PM,35.1,32.0,89,30.17,10.0,North,-9999.0,-,N/A,,Overcast,0,2012-12-31 21:35:00
4:55 PM,35.6,31.6,85,30.20,10.0,North,-9999.0,-,N/A,,Overcast,0,2012-12-31 21:55:00
5:15 PM,34.9,32.0,89,30.20,10.0,North,-9999.0,-,N/A,,Overcast,0,2012-12-31 22:15:00
5:35 PM,34.5,32.0,90,30.20,10.0,North,-9999.0,-,N/A,,Overcast,0,2012-12-31 22:35:00
5:55 PM,34.2,32.2,92,30.20,10.0,North,-9999.0,-,N/A,,Overcast,0,2012-12-31 22:55:00
6:15 PM,34.0,32.0,92,30.19,10.0,North,-9999.0,-,N/A,,Overcast,0,2012-12-31 23:15:00
6:35 PM,33.8,32.0,93,30.18,10.0,North,-9999.0,-,N/A,,Overcast,0,2012-12-31 23:35:00
7:15 PM,34.3,32.4,92,30.17,10.0,North,-9999.0,-,N/A,,Overcast,0,2013-01-01 00:15:00
7:35 PM,34.0,32.0,92,30.16,10.0,North,-9999.0,-,N/A,,Overcast,0,2013-01-01 00:35:00
7:55 PM,34.2,32.2,92,30.16,10.0,North,-9999.0,-,N/A,,Overcast,0,2013-01-01 00:55:00
8:15 PM,33.8,32.0,93,30.16,10.0,North,-9999.0,-,N/A,,Overcast,0,2013-01-01 01:15:00
8:35 PM,34.0,32.5,94,30.16,10.0,North,-9999.0,-,N/A,,Overcast,0,2013-01-01 01:35:00
8:55 PM,34.2,32.4,93,30.15,10.0,North,-9999.0,-,N/A,,Overcast,0,2013-01-01 01:55:00
9:15 PM,34.2,32.9,95,30.16,10.0,North,-9999.0,-,N/A,,Overcast,0,2013-01-01 02:15:00
9:35 PM,34.2,32.4,93,30.14,10.0,North,-9999.0,-,N/A,,Overcast,0,2013-01-01 02:35:00
9:55 PM,34.2,32.7,94,30.13,10.0,North,-9999.0,-,N/A,,Overcast,0,2013-01-01 02:55:00
10:15 PM,34.0,32.9,96,30.14,10.0,North,-9999.0,-,N/A,,Overcast,0,2013-01-01 03:15:00
10:35 PM,34.2,32.9,95,30.14,10.0,North,-9999.0,-,N/A,,Overcast,0,2013-01-01 03:35:00
10:55 PM,34.2,32.9,95,30.14,10.0,North,-9999.0,-,N/A,,Overcast,0,2013-01-01 03:55:00
11:15 PM,34.2,32.9,95,30.13,10.0,North,-9999.0,-,N/A,,Overcast,0,2013-01-01 04:15:00
11:35 PM,34.2,33.1,96,30.14,10.0,North,-9999.0,-,N/A,,Overcast,0,2013-01-01 04:35:00